FW1511 Weather Reports


Display with metric or nautical units.
time (UTC)temp
F
wind
direction
speed
MPH
gust
MPH
rain 1hr
in
rain 24hr
in
rain mn
in
humidity
%
barometer
mb
20260901190107 66 149 3.0 8.0 0.00 0.00 0.00 77 1010.3
20260901184556 65 150 1.0 7.0 0.00 0.00 0.00 78 1010.3
20260901183056 65 151 1.0 5.0 0.00 0.00 0.00 78 1010.5
20260901181557 65 148 2.0 6.0 0.00 0.00 0.00 77 1010.3
20260901180052 65 104 2.0 5.0 0.00 0.00 0.00 78 1010.2
20260901174552 65 99 2.0 8.0 0.00 0.00 0.00 78 1010.0
20260901173105 65 131 3.0 6.0 0.00 0.00 0.00 78 1010.0
20260901171551 65 139 2.0 7.0 0.00 0.00 0.00 80 1009.9
20260901170048 64 127 2.0 6.0 0.00 0.00 0.00 79 1009.8
20260901164554 63 84 1.0 6.0 0.00 0.00 0.00 82 1009.7
20260901163043 63 147 1.0 4.0 0.00 0.00 0.00 83 1009.9
20260901161542 62 160 2.0 7.0 0.00 0.00 0.00 84 1009.9
20260901160043 62 154 1.0 4.0 0.00 0.00 0.00 85 1010.1
20260901154541 61 101 2.0 8.0 0.00 0.00 0.00 86 1010.0
20260901153040 61 138 2.0 6.0 0.00 0.00 0.00 88 1010.0
20260901151532 60 164 0.0 3.0 0.00 0.00 0.00 91 1010.1
20260901150030 59 156 0.0 2.0 0.00 0.00 0.00 92 1010.0
20260901144535 58 157 1.0 5.0 0.00 0.00 0.00 94 1010.0
20260901143025 57 146 0.0 2.0 0.00 0.00 0.00 95 1009.9
20260901141526 57 142 0.0 2.0 0.00 0.00 0.00 95 1009.9
20260901140023 56 148 0.0 0.0 0.00 0.00 0.00 96 1009.8
20260901134522 56 148 0.0 0.0 0.00 0.00 0.00 96 1009.8
20260901133035 56 148 0.0 0.0 0.00 0.00 0.00 96 1009.7
20260901131521 55 148 0.0 0.0 0.00 0.00 0.00 96 1009.7
20260901130020 55 148 0.0 0.0 0.00 0.00 0.00 97 1009.7
20260901124520 54 148 0.0 0.0 0.00 0.00 0.00 96 1009.8
20260901123019 54 148 0.0 0.0 0.00 0.00 0.00 97 1009.9
20260901121520 54 147 0.0 0.0 0.00 0.00 0.00 96 1009.9
20260901120017 54 149 0.0 0.0 0.00 0.00 0.00 96 1009.8
20260901114515 54 147 0.0 0.0 0.00 0.00 0.00 96 1009.9
20260901113014 54 147 0.0 1.0 0.00 0.00 0.00 96 1009.8
20260901111513 54 147 0.0 1.0 0.00 0.00 0.00 97 1009.6
20260901110018 54 149 0.0 1.0 0.00 0.00 0.00 95 1009.2
20260901104510 54 149 0.0 2.0 0.00 0.00 0.00 96 1009.3
20260901103008 53 160 0.0 0.0 0.00 0.00 0.00 95 1009.2
20260901101509 53 144 0.0 2.0 0.00 0.00 0.00 95 1009.2
20260901100004 52 197 0.0 0.0 0.00 0.00 0.00 94 1008.9
20260901094502 53 197 0.0 0.0 0.00 0.00 0.00 94 1008.7
20260901093127 53 197 0.0 0.0 0.00 0.00 0.00 93 1008.8
20260901091606 53 197 0.0 0.0 0.00 0.00 0.00 93 1008.8
20260901090055 54 197 0.0 0.0 0.00 0.00 0.00 93 1008.9
20260901084552 54 197 0.0 0.0 0.00 0.00 0.00 91 1009.0
20260901083050 55 197 0.0 0.0 0.00 0.00 0.00 91 1008.9
20260901081546 56 197 0.0 0.0 0.00 0.00 0.00 89 1008.8
20260901080047 58 243 0.0 0.0 0.00 0.00 0.00 90 1008.5
20260901074540 58 243 0.0 0.0 0.00 0.00 0.00 90 1008.3
20260901073039 58 243 0.0 0.0 0.00 0.00 0.00 90 1008.2
20260901071537 58 242 0.0 0.0 0.00 0.00 0.00 90 1008.2
20260901070037 57 249 0.0 0.0 0.00 0.00 0.00 87 1008.2
20260901064538 58 249 0.0 0.0 0.00 0.00 0.00 86 1008.1
20260901063036 59 249 0.0 0.0 0.00 0.00 0.00 85 1008.0
20260901061634 60 249 0.0 0.0 0.00 0.00 0.00 85 1008.1
20260901060032 61 249 0.0 0.0 0.00 0.00 0.00 84 1007.9
20260901054531 62 249 0.0 0.0 0.00 0.00 0.00 83 1008.0
20260901053031 63 249 0.0 0.0 0.00 0.00 0.00 81 1008.0
20260901051530 64 249 0.0 0.0 0.00 0.00 0.00 80 1008.1
20260901050030 65 272 0.0 1.0 0.00 0.00 0.00 78 1008.1
20260901044529 65 271 0.0 0.0 0.00 0.00 0.00 78 1008.1
20260901043029 66 273 0.0 0.0 0.00 0.00 0.00 76 1007.8
20260901041528 67 273 0.0 0.0 0.00 0.00 0.00 74 1007.7
20260901040029 68 162 0.0 0.0 0.00 0.00 0.00 72 1007.5
20260901034527 69 160 0.0 2.0 0.00 0.00 0.00 68 1007.3
20260901033042 69 212 0.0 0.0 0.00 0.00 0.00 62 1007.2
20260901031528 70 256 0.0 0.0 0.00 0.00 0.00 58 1006.9
20260901030027 72 256 0.0 0.0 0.00 0.00 0.00 54 1006.9
20260901024528 75 256 0.0 0.0 0.00 0.00 0.00 51 1006.7
20260901023029 77 257 0.0 3.0 0.00 0.00 0.00 48 1006.8
20260901021523 78 251 0.0 2.0 0.00 0.00 0.00 46 1006.8
20260901020021 80 250 1.0 3.0 0.00 0.00 0.00 44 1006.9
20260901014520 81 296 0.0 2.0 0.00 0.00 0.00 44 1006.9
20260901013020 82 311 0.0 4.0 0.00 0.00 0.00 44 1007.0
20260901011517 83 8 1.0 4.0 0.00 0.00 0.00 43 1007.0
20260901010016 82 332 0.0 4.0 0.00 0.00 0.00 45 1007.1
20260901004514 81 122 0.0 1.0 0.00 0.00 0.00 46 1007.2
20260901003014 80 281 1.0 4.0 0.00 0.00 0.00 46 1007.3
20260901001516 81 238 1.0 4.0 0.00 0.00 0.00 44 1007.5
20260901000011 80 302 1.0 5.0 0.00 0.00 0.00 44 1007.4
20260831234522 81 177 0.0 7.0 0.00 0.00 0.00 45 1007.4
20260831233007 82 27 0.0 6.0 0.00 0.00 0.00 45 1007.5
20260831231505 81 251 3.0 8.0 0.00 0.00 0.00 46 1007.7
20260831230002 82 18 0.0 8.0 0.00 0.00 0.00 44 1007.7
20260831224558 81 13 2.0 8.0 0.00 0.00 0.00 47 1007.8
20260831223056 80 23 3.0 8.0 0.00 0.00 0.00 47 1007.9
20260831221559 79 1 2.0 11.0 0.00 0.00 0.00 49 1008.1
20260831220059 79 321 1.0 6.0 0.00 0.00 0.00 49 1008.5
20260831214548 79 259 3.0 7.0 0.00 0.00 0.00 48 1008.7
20260831213047 78 262 4.0 10.0 0.00 0.00 0.00 48 1009.1
20260831211541 76 304 3.0 9.0 0.00 0.00 0.00 51 1009.0
20260831210039 77 297 4.0 9.0 0.00 0.00 0.00 51 1009.2
20260831204551 77 343 3.0 8.0 0.00 0.00 0.00 50 1009.4
20260831203053 76 280 1.0 8.0 0.00 0.00 0.00 53 1009.4
20260831201530 75 295 2.0 7.0 0.00 0.00 0.00 55 1009.8
20260831200036 74 30 3.0 5.0 0.00 0.00 0.00 54 1010.0
20260831194524 73 289 5.0 9.0 0.00 0.00 0.00 57 1010.4
20260831193025 72 21 4.0 13.0 0.00 0.00 0.00 58 1010.4
20260831191519 71 236 5.0 8.0 0.00 0.00 0.00 60 1010.7